| time (UTC) | temp F | wind direction | speed MPH | gust MPH | rain 1hr in | rain 24hr in | rain mn in | humidity % | barometer mb |
| 20260502224228 | 51 | 132 | 0.0 | 2.0 | 0.00 | 0.06 | 0.06 | 86 | 1008.7 |
| 20260502223726 | 51 | 76 | 0.0 | 1.0 | 0.00 | 0.06 | 0.06 | 86 | 1008.9 |
| 20260502223224 | 51 | 181 | 2.0 | 4.0 | 0.00 | 0.06 | 0.06 | 86 | 1008.8 |
| 20260502222721 | 51 | 181 | 2.0 | 3.0 | 0.00 | 0.06 | 0.06 | 86 | 1008.8 |
| 20260502222218 | 51 | 183 | 2.0 | 2.0 | 0.00 | 0.06 | 0.06 | 85 | 1008.8 |
| 20260502221714 | 51 | 109 | 2.0 | 2.0 | 0.00 | 0.06 | 0.06 | 86 | 1009.0 |
| 20260502221210 | 51 | 129 | 2.0 | 2.0 | 0.00 | 0.06 | 0.06 | 86 | 1009.1 |
| 20260502220706 | 50 | 121 | 2.0 | 2.0 | 0.00 | 0.06 | 0.06 | 87 | 1008.9 |
| 20260502220203 | 50 | 103 | 3.0 | 5.0 | 0.00 | 0.06 | 0.06 | 87 | 1009.0 |
| 20260502215700 | 50 | 110 | 2.0 | 2.0 | 0.00 | 0.06 | 0.06 | 87 | 1009.0 |
| 20260502215157 | 50 | 181 | 1.0 | 4.0 | 0.00 | 0.06 | 0.06 | 87 | 1009.2 |
| 20260502214654 | 50 | 175 | 0.0 | 3.0 | 0.00 | 0.06 | 0.06 | 87 | 1009.2 |
| 20260502214151 | 50 | 234 | 1.0 | 2.0 | 0.00 | 0.06 | 0.06 | 86 | 1009.0 |
| 20260502213648 | 50 | 168 | 0.0 | 2.0 | 0.00 | 0.06 | 0.06 | 86 | 1009.3 |
| 20260502213146 | 50 | 254 | 1.0 | 4.0 | 0.00 | 0.06 | 0.06 | 86 | 1009.1 |
| 20260502212644 | 50 | 282 | 2.0 | 4.0 | 0.00 | 0.06 | 0.06 | 86 | 1009.1 |
| 20260502212142 | 50 | 225 | 1.0 | 4.0 | 0.00 | 0.06 | 0.06 | 86 | 1008.9 |
| 20260502211637 | 50 | 59 | 2.0 | 4.0 | 0.00 | 0.06 | 0.06 | 86 | 1009.0 |
| 20260502211135 | 50 | 323 | 1.0 | 3.0 | 0.00 | 0.06 | 0.06 | 85 | 1009.1 |
| 20260502210632 | 50 | 302 | 4.0 | 6.0 | 0.00 | 0.06 | 0.06 | 84 | 1009.2 |
| 20260502210129 | 51 | 46 | 2.0 | 5.0 | 0.00 | 0.06 | 0.06 | 84 | 1009.2 |
| 20260502205626 | 51 | 253 | 2.0 | 5.0 | 0.00 | 0.06 | 0.06 | 83 | 1009.2 |
| 20260502205122 | 51 | 21 | 3.0 | 6.0 | 0.00 | 0.06 | 0.06 | 81 | 1009.2 |
| 20260502204619 | 52 | 322 | 2.0 | 8.0 | 0.00 | 0.06 | 0.06 | 77 | 1009.3 |
| 20260502204117 | 53 | 240 | 4.0 | 6.0 | 0.00 | 0.06 | 0.06 | 76 | 1009.1 |
| 20260502203614 | 53 | 280 | 3.0 | 5.0 | 0.00 | 0.06 | 0.06 | 77 | 1009.0 |
| 20260502203112 | 53 | 288 | 3.0 | 5.0 | 0.00 | 0.06 | 0.06 | 75 | 1009.0 |
| 20260502202607 | 53 | 308 | 3.0 | 4.0 | 0.00 | 0.06 | 0.06 | 75 | 1008.8 |
| 20260502202105 | 55 | 261 | 4.0 | 6.0 | 0.00 | 0.06 | 0.06 | 72 | 1008.9 |
| 20260502201601 | 55 | 308 | 2.0 | 3.0 | 0.00 | 0.06 | 0.06 | 70 | 1008.8 |
| 20260502201058 | 55 | 239 | 2.0 | 5.0 | 0.00 | 0.06 | 0.06 | 69 | 1008.9 |
| 20260502200554 | 55 | 127 | 2.0 | 6.0 | 0.00 | 0.06 | 0.06 | 69 | 1008.9 |
| 20260502200052 | 55 | 290 | 2.0 | 5.0 | 0.00 | 0.06 | 0.06 | 70 | 1008.8 |
| 20260502195549 | 55 | 141 | 2.0 | 8.0 | 0.00 | 0.06 | 0.06 | 70 | 1008.8 |
| 20260502195045 | 56 | 260 | 3.0 | 3.0 | 0.00 | 0.06 | 0.06 | 70 | 1008.8 |
| 20260502194542 | 56 | 220 | 5.0 | 6.0 | 0.00 | 0.06 | 0.06 | 68 | 1008.8 |
| 20260502194038 | 56 | 161 | 3.0 | 6.0 | 0.00 | 0.06 | 0.06 | 69 | 1008.9 |
| 20260502193536 | 56 | 161 | 2.0 | 5.0 | 0.00 | 0.06 | 0.06 | 70 | 1008.9 |
| 20260502193032 | 56 | 57 | 3.0 | 6.0 | 0.00 | 0.06 | 0.06 | 70 | 1008.9 |
| 20260502192528 | 56 | 110 | 2.0 | 8.0 | 0.00 | 0.06 | 0.06 | 70 | 1009.5 |
| 20260502192026 | 56 | 146 | 1.0 | 3.0 | 0.00 | 0.06 | 0.06 | 70 | 1009.0 |
| 20260502191522 | 56 | 133 | 2.0 | 6.0 | 0.00 | 0.06 | 0.06 | 70 | 1009.2 |
| 20260502191020 | 56 | 144 | 2.0 | 6.0 | 0.00 | 0.06 | 0.06 | 69 | 1009.1 |
| 20260502190517 | 56 | 127 | 1.0 | 7.0 | 0.00 | 0.06 | 0.06 | 71 | 1009.2 |
| 20260502190014 | 56 | 130 | 0.0 | 8.0 | 0.00 | 0.06 | 0.06 | 72 | 1009.1 |
| 20260502185509 | 55 | 101 | 6.0 | 9.0 | 0.00 | 0.06 | 0.06 | 72 | 1009.2 |
| 20260502185006 | 56 | 193 | 4.0 | 4.0 | 0.00 | 0.06 | 0.06 | 70 | 1009.1 |
| 20260502184501 | 56 | 200 | 1.0 | 3.0 | 0.00 | 0.06 | 0.06 | 67 | 1009.3 |
| 20260502183958 | 57 | 200 | 4.0 | 9.0 | 0.00 | 0.06 | 0.06 | 65 | 1009.3 |
| 20260502183454 | 58 | 176 | 2.0 | 4.0 | 0.00 | 0.06 | 0.06 | 65 | 1009.4 |
| 20260502182949 | 57 | 216 | 3.0 | 9.0 | 0.00 | 0.06 | 0.06 | 65 | 1009.4 |
| 20260502182445 | 58 | 229 | 5.0 | 6.0 | 0.00 | 0.06 | 0.06 | 63 | 1009.2 |
| 20260502181941 | 57 | 134 | 2.0 | 7.0 | 0.00 | 0.06 | 0.06 | 63 | 1009.2 |
| 20260502181440 | 56 | 247 | 2.0 | 11.0 | 0.00 | 0.06 | 0.06 | 63 | 1009.3 |
| 20260502180938 | 56 | 196 | 10.0 | 11.0 | 0.00 | 0.06 | 0.06 | 62 | 1009.4 |
| 20260502180435 | 56 | 201 | 3.0 | 4.0 | 0.00 | 0.06 | 0.06 | 62 | 1009.3 |
| 20260502170354 | 55 | 193 | 5.0 | 11.0 | 0.00 | 0.06 | 0.06 | 72 | 1009.9 |
| 20260502164341 | 55 | 221 | 2.0 | 9.0 | 0.00 | 0.06 | 0.06 | 81 | 1010.2 |
| 20260502163837 | 55 | 197 | 2.0 | 3.0 | 0.00 | 0.06 | 0.06 | 81 | 1010.1 |
| 20260502163333 | 55 | 294 | 3.0 | 7.0 | 0.00 | 0.06 | 0.06 | 80 | 1010.1 |
| 20260502162831 | 55 | 161 | 2.0 | 3.0 | 0.00 | 0.06 | 0.06 | 82 | 1010.3 |
| 20260502162328 | 54 | 226 | 4.0 | 6.0 | 0.00 | 0.06 | 0.06 | 82 | 1010.3 |
| 20260502161825 | 53 | 165 | 2.0 | 6.0 | 0.00 | 0.06 | 0.06 | 83 | 1010.4 |
| 20260502161321 | 53 | 172 | 2.0 | 4.0 | 0.00 | 0.06 | 0.06 | 86 | 1010.7 |
| 20260502160819 | 52 | 233 | 2.0 | 4.0 | 0.00 | 0.06 | 0.06 | 86 | 1010.5 |
| 20260502160317 | 52 | 161 | 1.0 | 5.0 | 0.00 | 0.06 | 0.06 | 87 | 1010.9 |
| 20260502152247 | 50 | 181 | 1.0 | 2.0 | 0.00 | 0.06 | 0.06 | 90 | 1010.8 |
| 20260502151744 | 50 | 150 | 0.0 | 5.0 | 0.00 | 0.06 | 0.06 | 90 | 1010.7 |
| 20260502151241 | 50 | 125 | 2.0 | 4.0 | 0.00 | 0.06 | 0.06 | 91 | 1010.6 |
| 20260502150739 | 50 | 145 | 0.0 | 1.0 | 0.00 | 0.06 | 0.06 | 91 | 1010.8 |
| 20260502150235 | 50 | 164 | 2.0 | 4.0 | 0.00 | 0.06 | 0.06 | 91 | 1010.6 |
| 20260502130624 | 47 | 107 | 1.0 | 2.0 | 0.00 | 0.05 | 0.05 | 95 | 1011.6 |
| 20260502130122 | 46 | 177 | 2.0 | 2.0 | 0.00 | 0.05 | 0.05 | 95 | 1011.8 |
| 20260502123607 | 46 | 98 | 0.0 | 2.0 | 0.02 | 0.04 | 0.04 | 97 | 1011.8 |
| 20260502123103 | 46 | 67 | 1.0 | 3.0 | 0.05 | 0.04 | 0.04 | 97 | 1011.8 |
| 20260502122600 | 46 | 10 | 0.0 | 1.0 | 0.02 | 0.03 | 0.03 | 97 | 1011.6 |
| 20260502122057 | 46 | 32 | 0.0 | 1.0 | 0.00 | 0.03 | 0.03 | 97 | 1011.4 |
| 20260502121555 | 46 | 115 | 2.0 | 2.0 | 0.00 | 0.03 | 0.03 | 97 | 1011.6 |
| 20260502121052 | 46 | 63 | 0.0 | 2.0 | 0.00 | 0.03 | 0.03 | 97 | 1011.2 |
| 20260502120548 | 46 | 60 | 1.0 | 2.0 | 0.00 | 0.03 | 0.03 | 97 | 1011.3 |
| 20260502115543 | 46 | 21 | 0.0 | 4.0 | 0.02 | 0.03 | 0.03 | 97 | 1011.3 |
| 20260502115039 | 46 | 281 | 1.0 | 2.0 | 0.00 | 0.02 | 0.02 | 97 | 1011.3 |
| 20260502114535 | 46 | 44 | 1.0 | 2.0 | 0.02 | 0.02 | 0.02 | 98 | 1011.3 |
| 20260502114032 | 46 | 60 | 3.0 | 3.0 | 0.05 | 0.02 | 0.02 | 97 | 1011.2 |
| 20260502113530 | 46 | 54 | 0.0 | 1.0 | 0.02 | 0.02 | 0.02 | 97 | 1011.5 |
| 20260502113029 | 46 | 75 | 2.0 | 2.0 | 0.00 | 0.02 | 0.02 | 97 | 1011.5 |
| 20260502112526 | 46 | 46 | 1.0 | 2.0 | 0.02 | 0.02 | 0.02 | 97 | 1011.5 |
| 20260502112023 | 46 | 269 | 0.0 | 0.0 | 0.02 | 0.02 | 0.02 | 96 | 1011.4 |
| 20260502111520 | 46 | 113 | 0.0 | 0.0 | 0.02 | 0.01 | 0.01 | 96 | 1011.3 |
| 20260502111018 | 46 | 130 | 0.0 | 0.0 | 0.05 | 0.01 | 0.01 | 95 | 1011.1 |
| 20260502110515 | 46 | 66 | 0.0 | 2.0 | 0.02 | 0.00 | 0.00 | 94 | 1011.0 |
| 20260502110013 | 46 | 32 | 0.0 | 2.0 | 0.02 | 0.00 | 0.00 | 94 | 1010.7 |
| 20260502105510 | 46 | 93 | 0.0 | 0.0 | 0.00 | 0.00 | 0.00 | 94 | 1010.8 |
| 20260502105008 | 46 | 164 | 1.0 | 1.0 | 0.00 | 0.00 | 0.00 | 94 | 1010.7 |
| 20260502104504 | 46 | 60 | 2.0 | 2.0 | 0.00 | 0.00 | 0.00 | 93 | 1010.6 |
| 20260502104002 | 46 | 150 | 1.0 | 1.0 | 0.00 | 0.00 | 0.00 | 93 | 1010.8 |
| 20260502103459 | 46 | 116 | 1.0 | 2.0 | 0.00 | 0.00 | 0.00 | 93 | 1010.7 |
| 20260502102956 | 46 | 73 | 0.0 | 1.0 | 0.00 | 0.00 | 0.00 | 93 | 1010.3 |
| 20260502102453 | 46 | 72 | 2.0 | 2.0 | 0.00 | 0.00 | 0.00 | 92 | 1010.3 |
| 20260502101950 | 46 | 164 | 0.0 | 2.0 | 0.00 | 0.00 | 0.00 | 93 | 1010.7 |
| 20260502101448 | 45 | 131 | 1.0 | 1.0 | 0.00 | 0.00 | 0.00 | 94 | 1010.5 |
| 20260502100946 | 46 | 234 | 1.0 | 2.0 | 0.00 | 0.00 | 0.00 | 94 | 1010.4 |
| 20260502100445 | 45 | 129 | 1.0 | 2.0 | 0.00 | 0.00 | 0.00 | 93 | 1010.3 |
| 20260502091419 | 47 | 104 | 3.0 | 3.0 | 0.00 | 0.00 | 0.00 | 86 | 1010.1 |
| 20260502090916 | 47 | 115 | 1.0 | 2.0 | 0.00 | 0.00 | 0.00 | 84 | 1010.6 |
| 20260502090414 | 47 | 184 | 2.0 | 3.0 | 0.00 | 0.00 | 0.00 | 86 | 1010.8 |
| 20260502071308 | 47 | 112 | 1.0 | 2.0 | 0.00 | 0.00 | 0.00 | 79 | 1010.4 |
| 20260502070806 | 47 | 126 | 2.0 | 3.0 | 0.00 | 0.00 | 0.00 | 78 | 1010.3 |
| 20260502070304 | 47 | 80 | 2.0 | 2.0 | 0.00 | 0.00 | 0.00 | 79 | 1010.6 |
| 20260502065802 | 46 | 167 | 2.0 | 2.0 | 0.00 | 0.00 | 0.00 | 82 | 1010.7 |
| 20260502065300 | 46 | 103 | 1.0 | 3.0 | 0.00 | 0.00 | 0.00 | 81 | 1010.5 |
| 20260502064758 | 45 | 124 | 1.0 | 3.0 | 0.00 | 0.00 | 0.00 | 85 | 1010.9 |
| 20260502064255 | 44 | 116 | 1.0 | 1.0 | 0.00 | 0.00 | 0.00 | 85 | 1010.6 |
| 20260502063753 | 45 | 50 | 1.0 | 2.0 | 0.00 | 0.00 | 0.00 | 86 | 1010.6 |
| 20260502063251 | 45 | 61 | 2.0 | 2.0 | 0.00 | 0.00 | 0.00 | 86 | 1010.7 |
| 20260502062747 | 44 | 44 | 0.0 | 1.0 | 0.00 | 0.00 | 0.00 | 85 | 1010.7 |
| 20260502062245 | 44 | 124 | 0.0 | 1.0 | 0.00 | 0.00 | 0.00 | 85 | 1010.4 |
| 20260502061743 | 44 | 106 | 0.0 | 0.0 | 0.00 | 0.00 | 0.00 | 85 | 1010.3 |
| 20260502061241 | 44 | 113 | 0.0 | 1.0 | 0.00 | 0.00 | 0.00 | 85 | 1010.3 |
| 20260502060736 | 44 | 94 | 1.0 | 2.0 | 0.00 | 0.00 | 0.00 | 84 | 1010.2 |
| 20260502060232 | 44 | 116 | 2.0 | 2.0 | 0.00 | 0.00 | 0.00 | 84 | 1010.1 |
| 20260502055730 | 44 | 113 | 0.0 | 2.0 | 0.00 | 0.00 | 0.00 | 83 | 1010.3 |
| 20260502055228 | 44 | 64 | 1.0 | 2.0 | 0.00 | 0.00 | 0.00 | 83 | 1010.1 |
| 20260502054727 | 44 | 105 | 1.0 | 2.0 | 0.00 | 0.00 | 0.00 | 83 | 1010.3 |
| 20260502054224 | 44 | 89 | 0.0 | 3.0 | 0.00 | 0.00 | 0.00 | 83 | 1010.3 |
| 20260502053721 | 44 | 97 | 2.0 | 2.0 | 0.00 | 0.00 | 0.00 | 82 | 1010.3 |
| 20260502053218 | 44 | 150 | 0.0 | 1.0 | 0.00 | 0.00 | 0.00 | 82 | 1010.3 |
| 20260502052716 | 43 | 148 | 0.0 | 0.0 | 0.00 | 0.00 | 0.00 | 83 | 1010.2 |
| 20260502052214 | 43 | 164 | 1.0 | 1.0 | 0.00 | 0.00 | 0.00 | 83 | 1010.3 |
| 20260502051712 | 43 | 89 | 0.0 | 1.0 | 0.00 | 0.00 | 0.00 | 83 | 1010.5 |
| 20260502051210 | 44 | 89 | 0.0 | 0.0 | 0.00 | 0.00 | 0.00 | 82 | 1010.3 |
| 20260502050706 | 44 | 113 | 0.0 | 1.0 | 0.00 | 0.00 | 0.00 | 81 | 1010.2 |
| 20260502050202 | 44 | 64 | 1.0 | 2.0 | 0.00 | 0.00 | 0.00 | 81 | 1010.5 |
| 20260502045659 | 44 | 55 | 0.0 | 0.0 | 0.00 | 0.00 | 0.00 | 81 | 1010.3 |
| 20260502045156 | 44 | 100 | 2.0 | 2.0 | 0.00 | 0.00 | 0.00 | 80 | 1010.3 |
| 20260502044653 | 45 | 88 | 1.0 | 2.0 | 0.00 | 0.00 | 0.00 | 79 | 1010.4 |
| 20260502044149 | 45 | 94 | 2.0 | 2.0 | 0.00 | 0.00 | 0.00 | 79 | 1010.6 |
| 20260502043647 | 45 | 85 | 2.0 | 2.0 | 0.00 | 0.00 | 0.00 | 79 | 1010.5 |
| 20260502043144 | 45 | 82 | 1.0 | 2.0 | 0.00 | 0.00 | 0.00 | 79 | 1010.5 |
| 20260502042643 | 44 | 89 | 1.0 | 2.0 | 0.00 | 0.00 | 0.00 | 78 | 1010.7 |
| 20260502042140 | 44 | 72 | 1.0 | 1.0 | 0.00 | 0.00 | 0.00 | 78 | 1010.6 |
| 20260502041638 | 44 | 107 | 1.0 | 1.0 | 0.00 | 0.00 | 0.00 | 78 | 1010.7 |
| 20260502041135 | 44 | 68 | 1.0 | 1.0 | 0.00 | 0.00 | 0.00 | 77 | 1010.7 |
| 20260502040632 | 45 | 66 | 0.0 | 1.0 | 0.00 | 0.00 | 0.00 | 78 | 1010.7 |
| 20260502040130 | 45 | 78 | 0.0 | 2.0 | 0.00 | 0.00 | 0.00 | 77 | 1010.7 |
| 20260502035625 | 45 | 94 | 2.0 | 2.0 | 0.00 | 0.00 | 0.00 | 76 | 1010.6 |
| 20260502035122 | 45 | 86 | 2.0 | 3.0 | 0.00 | 0.00 | 0.00 | 76 | 1010.7 |
| 20260502034620 | 45 | 296 | 2.0 | 2.0 | 0.00 | 0.00 | 0.00 | 75 | 1010.7 |
| 20260502034119 | 45 | 224 | 0.0 | 2.0 | 0.00 | 0.00 | 0.00 | 74 | 1010.6 |
| 20260502033616 | 45 | 113 | 2.0 | 2.0 | 0.00 | 0.00 | 0.00 | 74 | 1010.6 |
| 20260502033114 | 45 | 116 | 1.0 | 1.0 | 0.00 | 0.00 | 0.00 | 73 | 1010.6 |
| 20260502032614 | 45 | 98 | 0.0 | 1.0 | 0.00 | 0.00 | 0.00 | 72 | 1010.6 |
| 20260502032111 | 45 | 67 | 0.0 | 1.0 | 0.00 | 0.00 | 0.00 | 72 | 1010.5 |
| 20260502031609 | 45 | 89 | 0.0 | 1.0 | 0.00 | 0.00 | 0.00 | 71 | 1010.4 |
| 20260502031107 | 45 | 89 | 0.0 | 1.0 | 0.00 | 0.00 | 0.00 | 72 | 1010.6 |
| 20260502030606 | 45 | 29 | 0.0 | 1.0 | 0.00 | 0.00 | 0.00 | 70 | 1010.3 |
| 20260502025600 | 45 | 52 | 0.0 | 1.0 | 0.00 | 0.00 | 0.00 | 73 | 1010.3 |
| 20260502025058 | 45 | 59 | 0.0 | 1.0 | 0.00 | 0.00 | 0.00 | 73 | 1010.4 |
| 20260502024555 | 44 | 88 | 1.0 | 2.0 | 0.00 | 0.00 | 0.00 | 72 | 1010.3 |
| 20260502024053 | 44 | 84 | 1.0 | 2.0 | 0.00 | 0.00 | 0.00 | 72 | 1010.2 |
| 20260502023551 | 45 | 113 | 0.0 | 1.0 | 0.00 | 0.00 | 0.00 | 72 | 1010.5 |
| 20260502023048 | 44 | 113 | 2.0 | 2.0 | 0.00 | 0.00 | 0.00 | 70 | 1010.4 |
| 20260502022544 | 44 | 65 | 0.0 | 1.0 | 0.00 | 0.00 | 0.00 | 69 | 1010.2 |
| 20260502022042 | 44 | 160 | 0.0 | 1.0 | 0.00 | 0.00 | 0.00 | 70 | 1010.3 |
| 20260502021539 | 44 | 103 | 0.0 | 0.0 | 0.00 | 0.00 | 0.00 | 71 | 1010.4 |
| 20260502021036 | 44 | 100 | 0.0 | 1.0 | 0.00 | 0.00 | 0.00 | 70 | 1010.3 |
| 20260502020534 | 44 | 59 | 1.0 | 1.0 | 0.00 | 0.00 | 0.00 | 69 | 1010.4 |
| 20260502020031 | 44 | 66 | 0.0 | 1.0 | 0.00 | 0.00 | 0.00 | 68 | 1010.3 |
| 20260502015529 | 45 | 135 | 0.0 | 1.0 | 0.00 | 0.00 | 0.00 | 68 | 1010.3 |
| 20260502015024 | 45 | 113 | 0.0 | 2.0 | 0.00 | 0.00 | 0.00 | 68 | 1010.3 |
| 20260502014522 | 45 | 95 | 1.0 | 2.0 | 0.00 | 0.00 | 0.00 | 65 | 1010.4 |
| 20260502014019 | 46 | 140 | 1.0 | 1.0 | 0.00 | 0.00 | 0.00 | 66 | 1010.4 |
| 20260502013514 | 46 | 89 | 0.0 | 1.0 | 0.00 | 0.00 | 0.00 | 65 | 1010.3 |
| 20260502013010 | 46 | 46 | 2.0 | 2.0 | 0.00 | 0.00 | 0.00 | 64 | 1010.2 |
| 20260502012508 | 46 | 167 | 1.0 | 1.0 | 0.00 | 0.00 | 0.00 | 64 | 1010.2 |
| 20260502012006 | 47 | 103 | 0.0 | 0.0 | 0.00 | 0.00 | 0.00 | 62 | 1010.0 |
| 20260502011501 | 47 | 44 | 0.0 | 0.0 | 0.00 | 0.00 | 0.00 | 61 | 1010.0 |
| 20260502010958 | 47 | 61 | 1.0 | 1.0 | 0.00 | 0.00 | 0.00 | 61 | 1010.1 |
| 20260502010455 | 48 | 105 | 0.0 | 1.0 | 0.00 | 0.00 | 0.00 | 61 | 1010.1 |
| 20260502005951 | 48 | 121 | 1.0 | 1.0 | 0.00 | 0.00 | 0.00 | 60 | 1010.2 |
| 20260502005449 | 49 | 32 | 0.0 | 1.0 | 0.00 | 0.00 | 0.00 | 58 | 1010.0 |
| 20260502004948 | 49 | 102 | 0.0 | 0.0 | 0.00 | 0.00 | 0.00 | 57 | 1010.0 |
| 20260502004443 | 49 | 89 | 0.0 | 1.0 | 0.00 | 0.00 | 0.00 | 55 | 1009.8 |
| 20260502003940 | 50 | 103 | 0.0 | 0.0 | 0.00 | 0.00 | 0.00 | 56 | 1009.8 |
| 20260502003438 | 50 | 55 | 0.0 | 0.0 | 0.00 | 0.00 | 0.00 | 54 | 1009.8 |
| 20260502002933 | 50 | 49 | 0.0 | 0.0 | 0.00 | 0.00 | 0.00 | 52 | 1009.7 |
| 20260502002431 | 51 | 93 | 0.0 | 1.0 | 0.00 | 0.00 | 0.00 | 50 | 1009.5 |
| 20260502001928 | 52 | 66 | 0.0 | 1.0 | 0.00 | 0.00 | 0.00 | 49 | 1009.4 |
| 20260502001426 | 52 | 113 | 0.0 | 0.0 | 0.00 | 0.00 | 0.00 | 51 | 1009.4 |
| 20260502000923 | 53 | 103 | 0.0 | 0.0 | 0.00 | 0.00 | 0.00 | 48 | 1009.2 |
| 20260502000424 | 53 | 103 | 0.0 | 0.0 | 0.00 | 0.00 | 0.00 | 51 | 1009.2 |
| 20260501235917 | 53 | 124 | 0.0 | 1.0 | 0.00 | 0.00 | 0.00 | 48 | 1009.0 |
| 20260501235413 | 54 | 49 | 0.0 | 0.0 | 0.00 | 0.00 | 0.00 | 45 | 1009.1 |
| 20260501234908 | 55 | 50 | 0.0 | 1.0 | 0.00 | 0.00 | 0.00 | 44 | 1009.1 |
| 20260501234405 | 56 | 13 | 0.0 | 0.0 | 0.00 | 0.00 | 0.00 | 47 | 1009.0 |
| 20260501233904 | 56 | 89 | 0.0 | 0.0 | 0.00 | 0.00 | 0.00 | 42 | 1008.8 |
| 20260501233401 | 57 | 107 | 0.0 | 1.0 | 0.00 | 0.00 | 0.00 | 43 | 1008.6 |
| 20260501232857 | 57 | 129 | 0.0 | 1.0 | 0.00 | 0.00 | 0.00 | 40 | 1008.6 |
| 20260501232354 | 58 | 119 | 0.0 | 1.0 | 0.00 | 0.00 | 0.00 | 40 | 1008.6 |
| 20260501231851 | 59 | 102 | 0.0 | 2.0 | 0.00 | 0.00 | 0.00 | 37 | 1008.5 |
| 20260501231349 | 59 | 48 | 0.0 | 2.0 | 0.00 | 0.00 | 0.00 | 36 | 1008.5 |
| 20260501230847 | 60 | 240 | 0.0 | 1.0 | 0.00 | 0.00 | 0.00 | 36 | 1008.3 |
| 20260501230346 | 60 | 24 | 0.0 | 6.0 | 0.00 | 0.00 | 0.00 | 34 | 1008.3 |
| 20260501225843 | 61 | 268 | 2.0 | 5.0 | 0.00 | 0.00 | 0.00 | 34 | 1008.4 |
| 20260501225341 | 61 | 287 | 2.0 | 7.0 | 0.00 | 0.00 | 0.00 | 34 | 1008.4 |
| 20260501224837 | 62 | 287 | 4.0 | 6.0 | 0.00 | 0.00 | 0.00 | 32 | 1008.3 |